Location: Pedholt
(56.0260°N, 10.2097°E)
Time: 02:38:51
(UTC+00:00)

Transit 2A Rocket - Pass Details

Date: 05 August 2021
Orbit: 586 x 917 km, 66.7° (Epoch: 27 September)

Event Time Altitude Azimuth Distance (km) Brightness Sun altitude
Rises 16:09:57 0° 283° (WNW) 3,023 9.3 24.3°
Reaches altitude 10° 16:12:31 10° 296° (WNW) 2,164 8.5 24.0°
Maximum altitude 16:16:40 26° 354° (N) 1,437 6.6 23.4°
Drops below altitude 10° 16:21:09 10° 50° (NE) 2,353 7.1 22.8°
Sets 16:24:05 0° 63° (ENE) 3,345 7.8 22.4°
